Weather History for Salem, IL

Change the Weather History Date:

Wednesday, February 19, 2014

  Actual Average Record
Temperature  
Mean Temperature 44 °F -  
Max Temperature 50 °F 45 °F 66 °F (1981)
Min Temperature 37 °F 27 °F -6 °F (1979)
Degree Days  
Heating Degree Days 22    
Moisture  
Dew Point 36 °F    
Average Humidity 72    
Maximum Humidity 84    
Minimum Humidity 55    
Precipitation  
Precipitation 0.00 in - - ()
Sea Level Pressure  
Sea Level Pressure 29.95 in    
Wind  
Wind Speed 7 mph (WSW)    
Max Wind Speed 13 mph    
Max Gust Speed 16 mph    
Visibility 10 miles    
Events      
Averages and records for this station are not official NWS values.
T = Trace of Precipitation, MM = Missing Value Source: NWS Daily Summary

Daily Weather History Graph

Daily Weather History Graph

Search for Another Location

Airport:

Trip Planner

Search our weather history database for the weather conditions in past years. The results will help you decide how hot, cold, wet, or windy it might be!

Date:

Astronomy

Feb. 19, 2014 Rise Set
Actual Time 6:41 AM CST 5:38 PM CST
Civil Twilight 6:14 AM CST 6:05 PM CST
Nautical Twilight 5:43 AM CST 6:36 PM CST
Astronomical Twilight 5:13 AM CST 7:06 PM CST
Moon 10:27 PM CST (2/19) 8:51 AM CST (2/19)
Length of Visible Light 11h 50m
Length of Day
10h 56m
Waning Gibbous, 79% of the Moon is Illuminated
Feb 19
Waning Gibbous
Feb 22
Last Quarter
Mar 1
New
Mar 8
First Quarter
Mar 16
Full

Hourly Weather History & Observations

Time (CST) Temp. Windchill Dew Point Humidity Pressure Visibility Wind Dir Wind Speed Gust Speed Precip Events Conditions
12:15 AM 48.2 °F - 43.2 °F 83% 29.77 in 10.0 mi SW 10.4 mph - N/A   Clear
12:35 AM 47.7 °F - 43.0 °F 84% 29.77 in 10.0 mi SW 9.2 mph - N/A   Clear
12:55 AM 48.2 °F - 43.0 °F 82% 29.77 in 10.0 mi SW 11.5 mph 16.1 mph N/A   Clear
1:15 AM 48.2 °F - 42.4 °F 80% 29.78 in 10.0 mi WSW 10.4 mph - N/A   Clear
1:35 AM 46.0 °F 41.9 °F 41.4 °F 84% 29.79 in 10.0 mi West 8.1 mph - N/A   Clear
1:55 AM 46.4 °F 41.5 °F 40.3 °F 79% 29.80 in 10.0 mi West 10.4 mph - N/A   Clear
2:15 AM 43.9 °F 38.8 °F 38.1 °F 80% 29.81 in 10.0 mi West 9.2 mph - N/A   Clear
2:35 AM 42.8 °F 38.0 °F 36.0 °F 77% 29.82 in 10.0 mi West 8.1 mph - N/A   Clear
2:55 AM 44.2 °F 38.4 °F 34.7 °F 69% 29.83 in 10.0 mi WNW 11.5 mph - N/A   Clear
3:15 AM 45.0 °F 39.3 °F 33.8 °F 65% 29.83 in 10.0 mi WNW 11.5 mph - N/A   Clear
3:35 AM 43.7 °F 39.1 °F 33.4 °F 67% 29.84 in 10.0 mi West 8.1 mph - N/A   Clear
3:55 AM 40.8 °F 34.1 °F 33.1 °F 74% 29.86 in 10.0 mi West 11.5 mph - N/A   Clear
4:15 AM 43.2 °F 37.4 °F 33.1 °F 68% 29.87 in 10.0 mi WNW 10.4 mph - N/A   Clear
4:35 AM 42.6 °F 35.9 °F 33.1 °F 69% 29.88 in 10.0 mi WNW 12.7 mph - N/A   Clear
4:55 AM 39.4 °F 33.8 °F 32.7 °F 77% 29.89 in 10.0 mi West 8.1 mph - N/A   Clear
5:15 AM 41.4 °F 35.7 °F 33.3 °F 73% 29.90 in 10.0 mi WNW 9.2 mph - N/A   Clear
5:35 AM 38.5 °F 33.4 °F 32.9 °F 80% 29.91 in 10.0 mi West 6.9 mph - N/A   Clear
5:55 AM 38.1 °F 32.3 °F 32.9 °F 81% 29.92 in 10.0 mi West 8.1 mph - N/A   Clear
6:15 AM 38.3 °F 33.2 °F 32.9 °F 81% 29.93 in 10.0 mi West 6.9 mph - N/A   Clear
6:35 AM 37.9 °F 32.1 °F 32.9 °F 82% 29.94 in 10.0 mi West 8.1 mph - N/A   Clear
6:55 AM 37.4 °F 33.8 °F 32.9 °F 84% 29.95 in 10.0 mi West 4.6 mph - N/A   Clear
7:15 AM 37.4 °F 32.8 °F 32.9 °F 84% 29.96 in 10.0 mi West 5.8 mph - N/A   Clear
7:35 AM 37.9 °F 33.5 °F 33.3 °F 83% 29.97 in 10.0 mi West 5.8 mph - N/A   Clear
7:55 AM 39.0 °F 35.7 °F 33.8 °F 82% 29.99 in 10.0 mi West 4.6 mph - N/A   Clear
8:15 AM 40.8 °F 38.8 °F 34.9 °F 79% 30.00 in 10.0 mi West 3.5 mph - N/A   Clear
8:35 AM 42.1 °F 37.7 °F 35.2 °F 77% 30.01 in 10.0 mi West 6.9 mph - N/A   Clear
8:55 AM 42.4 °F 38.8 °F 35.6 °F 77% 30.02 in 10.0 mi West 5.8 mph - N/A   Clear
9:15 AM 43.5 °F 40.1 °F 36.3 °F 76% 30.03 in 10.0 mi WSW 5.8 mph - N/A   Clear
9:35 AM 43.9 °F 39.3 °F 36.5 °F 75% 30.04 in 10.0 mi West 8.1 mph - N/A   Clear
9:55 AM 44.6 °F 39.2 °F 37.6 °F 76% 30.05 in 10.0 mi West 10.4 mph - N/A   Clear
10:15 AM 45.1 °F 40.8 °F 37.4 °F 74% 30.05 in 10.0 mi West 8.1 mph - N/A   Clear
10:35 AM 45.7 °F 41.5 °F 37.4 °F 73% 30.05 in 10.0 mi West 8.1 mph - N/A   Clear
10:55 AM 45.9 °F 43.6 °F 37.9 °F 74% 30.05 in 10.0 mi WSW 4.6 mph - N/A   Clear
11:15 AM 46.4 °F - 37.6 °F 71% 30.03 in 10.0 mi Calm Calm - N/A   Clear
11:35 AM 47.1 °F - 37.2 °F 68% 30.01 in 10.0 mi Calm Calm - N/A   Clear
11:55 AM 47.7 °F - 37.0 °F 67% 30.03 in 10.0 mi Calm Calm - N/A   Clear
12:15 PM 48.2 °F - 38.8 °F 70% 30.05 in 10.0 mi WSW 6.9 mph - N/A   Clear
12:35 PM 48.2 °F - 38.8 °F 70% 30.06 in 10.0 mi SW 8.1 mph - N/A   Clear
12:55 PM 48.4 °F - 38.8 °F 70% 30.05 in 10.0 mi WSW 6.9 mph - N/A   Clear
1:15 PM 48.4 °F - 38.7 °F 69% 30.03 in 10.0 mi West 6.9 mph - N/A   Clear
1:35 PM 48.6 °F - 39.0 °F 70% 30.04 in 10.0 mi West 5.8 mph - N/A   Clear
1:55 PM 49.3 °F - 39.9 °F 70% 30.03 in 10.0 mi West 4.6 mph - N/A   Clear
2:15 PM 49.5 °F - 39.9 °F 70% 30.02 in 10.0 mi Calm Calm - N/A   Clear
2:35 PM 50.0 °F - 39.9 °F 68% 30.02 in 10.0 mi Calm Calm - N/A   Clear
2:55 PM 50.9 °F - 36.3 °F 57% 30.02 in 10.0 mi Calm Calm - N/A   Clear
3:15 PM 50.9 °F - 35.4 °F 55% 30.02 in 10.0 mi Calm Calm - N/A   Clear
3:35 PM 50.5 °F - 35.8 °F 57% 30.00 in 10.0 mi Calm Calm - N/A   Clear
3:55 PM 49.5 °F - 39.4 °F 68% 30.00 in 10.0 mi Calm Calm - N/A   Clear
4:15 PM 49.3 °F - 39.0 °F 68% 30.00 in 10.0 mi Calm Calm - N/A   Clear
4:35 PM 49.5 °F - 36.9 °F 62% 30.00 in 10.0 mi East 3.5 mph - N/A   Clear
4:55 PM 48.7 °F - 37.2 °F 64% 30.00 in 10.0 mi Calm Calm - N/A   Clear
5:15 PM 48.4 °F - 36.7 °F 64% 29.99 in 10.0 mi East 3.5 mph - N/A   Clear
5:35 PM 47.5 °F - 35.6 °F 63% 29.98 in 10.0 mi ESE 3.5 mph - N/A   Clear
5:55 PM 47.5 °F - 35.6 °F 63% 29.97 in 10.0 mi ESE 3.5 mph - N/A   Clear
6:20 PM 46.9 °F - 36.1 °F 66% 29.98 in 10.0 mi ESE 3.5 mph - N/A   Clear
6:55 PM 45.7 °F 44.4 °F 35.6 °F 68% 30.00 in 10.0 mi SSE 3.5 mph - N/A   Clear
7:15 PM 45.7 °F 44.4 °F 35.1 °F 66% 29.99 in 10.0 mi ESE 3.5 mph - N/A   Clear
7:35 PM 44.4 °F 42.0 °F 34.9 °F 69% 29.98 in 10.0 mi SE 4.6 mph - N/A   Clear
7:55 PM 45.0 °F 43.5 °F 35.2 °F 69% 29.97 in 10.0 mi ESE 3.5 mph - N/A   Clear
8:15 PM 44.6 °F 41.4 °F 35.4 °F 70% 29.95 in 10.0 mi East 5.8 mph - N/A   Clear
8:35 PM 44.2 °F 41.0 °F 35.6 °F 72% 29.95 in 10.0 mi ESE 5.8 mph - N/A   Clear
8:55 PM 43.9 °F 41.3 °F 35.8 °F 73% 29.94 in 10.0 mi ESE 4.6 mph - N/A   Clear
9:15 PM 43.3 °F 40.7 °F 35.6 °F 74% 29.94 in 10.0 mi ESE 4.6 mph - N/A   Clear
9:35 PM 43.2 °F 41.5 °F 35.2 °F 74% 29.94 in 10.0 mi ESE 3.5 mph - N/A   Clear
9:55 PM 43.3 °F 39.9 °F 35.1 °F 73% 29.92 in 10.0 mi ESE 5.8 mph - N/A   Mostly Cloudy
10:15 PM 43.7 °F 40.3 °F 35.2 °F 72% 29.91 in 10.0 mi East 5.8 mph - N/A   Overcast
10:35 PM 43.9 °F 39.9 °F 35.6 °F 73% 29.90 in 10.0 mi ESE 6.9 mph - N/A   Overcast
10:54 PM 44.6 °F 40.7 °F 35.6 °F 71% 29.88 in 10.0 mi ESE 6.9 mph - N/A   Mostly Cloudy
10:55 PM 44.8 °F 41.0 °F 35.1 °F 69% 29.88 in 10.0 mi ESE 6.9 mph - N/A   Mostly Cloudy
11:15 PM 44.8 °F 40.4 °F 34.9 °F 68% 29.87 in 10.0 mi ESE 8.1 mph - N/A   Overcast
11:35 PM 45.1 °F 40.8 °F 34.9 °F 67% 29.86 in 10.0 mi ESE 8.1 mph - N/A   Overcast
11:56 PM 46.4 °F 42.4 °F 35.6 °F 66% 29.85 in 10.0 mi ESE 8.1 mph - N/A   Overcast